Time,TemperatureF,DewpointF,PressureIn,WindDirection,WindDirectionDegrees,WindSpeedMPH,WindSpeedGustMPH,Humidity,HourlyPrecipIn,Conditions,Clouds,dailyrainin,SoftwareType,DateUTC
2013-09-25 00:00:00,63.0,-99.9,-100.00,ESE,112,4.0,8.0,-999,0.00,,,0.00,,2013-09-25 05:00:00,
2013-09-25 00:44:00,63.0,-99.9,-100.00,ESE,112,4.0,8.0,-999,0.00,,,0.00,,2013-09-25 05:44:00,
2013-09-25 00:53:00,63.0,-99.9,-100.00,ESE,112,4.0,8.0,-999,0.00,,,0.00,,2013-09-25 05:53:00,
2013-09-25 01:00:00,62.0,-99.9,-100.00,ESE,111,5.0,9.0,-999,0.00,,,0.00,,2013-09-25 06:00:00,
2013-09-25 01:42:00,62.0,-99.9,-100.00,ESE,111,5.0,9.0,-999,0.00,,,0.00,,2013-09-25 06:42:00,
2013-09-25 01:52:00,62.0,-99.9,-100.00,ESE,111,5.0,9.0,-999,0.00,,,0.00,,2013-09-25 06:52:00,
2013-09-25 02:00:00,60.0,-99.9,-100.00,SE,128,6.0,11.0,-999,0.00,,,0.00,,2013-09-25 07:00:00,
2013-09-25 02:42:00,60.0,-99.9,-100.00,SE,128,6.0,11.0,-999,0.00,,,0.00,,2013-09-25 07:42:00,
2013-09-25 02:53:00,60.0,-99.9,-100.00,SE,128,6.0,11.0,-999,0.00,,,0.00,,2013-09-25 07:53:00,
2013-09-25 03:00:00,59.0,-99.9,-100.00,ESE,114,3.0,7.0,-999,0.00,,,0.00,,2013-09-25 08:00:00,
2013-09-25 03:42:00,59.0,-99.9,-100.00,ESE,114,3.0,7.0,-999,0.00,,,0.00,,2013-09-25 08:42:00,
2013-09-25 03:53:00,59.0,-99.9,-100.00,ESE,114,3.0,7.0,-999,0.00,,,0.00,,2013-09-25 08:53:00,
2013-09-25 04:00:00,57.0,-99.9,-100.00,ESE,108,3.0,6.0,-999,0.00,,,0.00,,2013-09-25 09:00:00,
2013-09-25 04:44:00,57.0,-99.9,-100.00,ESE,108,3.0,6.0,-999,0.00,,,0.00,,2013-09-25 09:44:00,
2013-09-25 04:54:00,57.0,-99.9,-100.00,ESE,108,3.0,6.0,-999,0.00,,,0.00,,2013-09-25 09:54:00,
2013-09-25 05:00:00,56.0,-99.9,-100.00,ESE,116,3.0,4.0,-999,0.00,,,0.00,,2013-09-25 10:00:00,
2013-09-25 05:43:00,56.0,-99.9,-100.00,ESE,116,3.0,4.0,-999,0.00,,,0.00,,2013-09-25 10:43:00,
2013-09-25 05:53:00,56.0,-99.9,-100.00,ESE,116,3.0,4.0,-999,0.00,,,0.00,,2013-09-25 10:53:00,
2013-09-25 06:00:00,55.0,-99.9,-100.00,ESE,113,2.0,5.0,-999,0.00,,,0.00,,2013-09-25 11:00:00,
2013-09-25 06:43:00,55.0,-99.9,-100.00,ESE,113,2.0,5.0,-999,0.00,,,0.00,,2013-09-25 11:43:00,
2013-09-25 06:52:00,55.0,-99.9,-100.00,ESE,113,2.0,5.0,-999,0.00,,,0.00,,2013-09-25 11:52:00,
2013-09-25 07:00:00,54.0,-99.9,-100.00,ESE,115,3.0,5.0,-999,0.00,,,0.00,,2013-09-25 12:00:00,
2013-09-25 07:42:00,54.0,-99.9,-100.00,ESE,115,3.0,5.0,-999,0.00,,,0.00,,2013-09-25 12:42:00,
2013-09-25 07:52:00,54.0,-99.9,-100.00,ESE,115,3.0,5.0,-999,0.00,,,0.00,,2013-09-25 12:52:00,
2013-09-25 08:00:00,55.0,-99.9,-100.00,ESE,120,2.0,3.0,-999,0.00,,,0.00,,2013-09-25 13:00:00,
2013-09-25 08:42:00,55.0,-99.9,-100.00,ESE,120,2.0,3.0,-999,0.00,,,0.00,,2013-09-25 13:42:00,
2013-09-25 08:52:00,55.0,-99.9,-100.00,ESE,120,2.0,3.0,-999,0.00,,,0.00,,2013-09-25 13:52:00,
2013-09-25 09:00:00,59.0,-99.9,-100.00,ESE,107,3.0,8.0,-999,0.00,,,0.00,,2013-09-25 14:00:00,
2013-09-25 09:43:00,59.0,-99.9,-100.00,ESE,107,3.0,8.0,-999,0.00,,,0.00,,2013-09-25 14:43:00,
2013-09-25 09:52:00,59.0,-99.9,-100.00,ESE,107,3.0,8.0,-999,0.00,,,0.00,,2013-09-25 14:52:00,
2013-09-25 10:00:00,64.0,-99.9,-100.00,ESE,116,4.0,10.0,-999,0.00,,,0.00,,2013-09-25 15:00:00,
2013-09-25 10:44:00,64.0,-99.9,-100.00,ESE,116,4.0,10.0,-999,0.00,,,0.00,,2013-09-25 15:44:00,
2013-09-25 10:54:00,64.0,-99.9,-100.00,ESE,116,4.0,10.0,-999,0.00,,,0.00,,2013-09-25 15:54:00,
2013-09-25 12:00:00,72.0,-99.9,-100.00,North,351,3.0,6.0,-999,0.00,,,0.00,,2013-09-25 17:00:00,
2013-09-25 12:43:00,72.0,-99.9,-100.00,North,351,3.0,6.0,-999,0.00,,,0.00,,2013-09-25 17:43:00,
2013-09-25 12:52:00,72.0,-99.9,-100.00,North,351,3.0,6.0,-999,0.00,,,0.00,,2013-09-25 17:52:00,
2013-09-25 13:00:00,75.0,-99.9,-100.00,ESE,110,5.0,12.0,-999,0.00,,,0.00,,2013-09-25 18:00:00,
2013-09-25 13:42:00,75.0,-99.9,-100.00,ESE,110,5.0,12.0,-999,0.00,,,0.00,,2013-09-25 18:42:00,
2013-09-25 13:52:00,75.0,-99.9,-100.00,ESE,110,5.0,12.0,-999,0.00,,,0.00,,2013-09-25 18:52:00,
2013-09-25 14:00:00,76.0,-99.9,-100.00,SE,134,7.0,15.0,-999,0.00,,,0.00,,2013-09-25 19:00:00,
2013-09-25 14:53:00,76.0,-99.9,-100.00,SE,134,7.0,15.0,-999,0.00,,,0.00,,2013-09-25 19:53:00,
2013-09-25 15:00:00,77.0,-99.9,-100.00,SE,145,6.0,13.0,-999,0.00,,,0.00,,2013-09-25 20:00:00,
2013-09-25 15:52:00,77.0,-99.9,-100.00,SE,145,6.0,13.0,-999,0.00,,,0.00,,2013-09-25 20:52:00,
2013-09-25 16:00:00,79.0,-99.9,-100.00,SSE,162,4.0,10.0,-999,0.00,,,0.00,,2013-09-25 21:00:00,
2013-09-25 16:45:00,79.0,-99.9,-100.00,SSE,162,4.0,10.0,-999,0.00,,,0.00,,2013-09-25 21:45:00,
2013-09-25 16:55:00,79.0,-99.9,-100.00,SSE,162,4.0,10.0,-999,0.00,,,0.00,,2013-09-25 21:55:00,
2013-09-25 17:00:00,78.0,-99.9,-100.00,SSE,150,6.0,10.0,-999,0.00,,,0.00,,2013-09-25 22:00:00,
2013-09-25 17:43:00,78.0,-99.9,-100.00,SSE,150,6.0,10.0,-999,0.00,,,0.00,,2013-09-25 22:43:00,
2013-09-25 17:53:00,78.0,-99.9,-100.00,SSE,150,6.0,10.0,-999,0.00,,,0.00,,2013-09-25 22:53:00,
2013-09-25 18:00:00,76.0,-99.9,-100.00,SE,141,6.0,10.0,-999,0.00,,,0.00,,2013-09-25 23:00:00,
2013-09-25 18:42:00,76.0,-99.9,-100.00,SE,141,6.0,10.0,-999,0.00,,,0.00,,2013-09-25 23:42:00,
2013-09-25 18:53:00,76.0,-99.9,-100.00,SE,141,6.0,10.0,-999,0.00,,,0.00,,2013-09-25 23:53:00,
2013-09-25 19:00:00,74.0,-99.9,-100.00,SSE,151,4.0,6.0,-999,0.00,,,0.00,,2013-09-26 00:00:00,
2013-09-25 19:52:00,74.0,-99.9,-100.00,SSE,151,4.0,6.0,-999,0.00,,,0.00,,2013-09-26 00:52:00,
2013-09-25 20:00:00,71.0,-99.9,-100.00,SE,135,3.0,5.0,-999,0.00,,,0.00,,2013-09-26 01:00:00,
2013-09-25 20:42:00,71.0,-99.9,-100.00,SE,135,3.0,5.0,-999,0.00,,,0.00,,2013-09-26 01:42:00,
2013-09-25 20:52:00,71.0,-99.9,-100.00,SE,135,3.0,5.0,-999,0.00,,,0.00,,2013-09-26 01:52:00,
2013-09-25 21:00:00,69.0,-99.9,-100.00,SSE,147,4.0,6.0,-999,0.00,,,0.00,,2013-09-26 02:00:00,
2013-09-25 21:52:00,69.0,-99.9,-100.00,SSE,147,4.0,6.0,-999,0.00,,,0.00,,2013-09-26 02:52:00,
2013-09-25 22:00:00,67.0,-99.9,-100.00,SE,138,4.0,5.0,-999,0.00,,,0.00,,2013-09-26 03:00:00,
2013-09-25 22:45:00,67.0,-99.9,-100.00,SE,138,4.0,5.0,-999,0.00,,,0.00,,2013-09-26 03:45:00,
2013-09-25 22:55:00,67.0,-99.9,-100.00,SE,138,4.0,5.0,-999,0.00,,,0.00,,2013-09-26 03:55:00,
2013-09-25 23:00:00,64.0,-99.9,-100.00,SE,134,5.0,7.0,-999,0.00,,,0.00,,2013-09-26 04:00:00,
2013-09-25 23:45:00,64.0,-99.9,-100.00,SE,134,5.0,7.0,-999,0.00,,,0.00,,2013-09-26 04:45:00,
2013-09-25 23:55:00,64.0,-99.9,-100.00,SE,134,5.0,7.0,-999,0.00,,,0.00,,2013-09-26 04:55:00,